Dewpoint
57 58 58 58 58 58 58 58 58 59 59 58 58 58 58 56 57 54 40 36 38 62 56 40 31 25 21 21 26 22 17 16 18 35 46 51 53 54 56 55 56 57 58 59 62
57 57 58 58 58 58 58 58 58 58 58 58 58 58 58 58 52 47 51 62 63 62 24 28 26 20 19 21 24 20 17 18 18 34 41 50 52 54 54 54 54 57 59 61 62
56 57 58 58 58 58 58 58 58 58 58 58 58 58 57 57 43 35 64 63 64 57 21 28 22 20 17 21 23 21 19 21 22 31 45 51 52 54 53 52 54 55 59 60 61
56 57 58 58 58 57 57 57 58 58 58 58 57 57 58 52 31 37 66 65 65 40 22 20 23 19 19 19 21 20 20 22 18 44 48 51 53 53 52 52 54 57 59 60 60
56 57 57 57 57 57 57 57 57 57 57 57 57 57 52 28 10 58 67 67 47 29 20 23 26 17 23 15 14 14 14 16 20 24 49 51 52 53 52 54 56 57 58 59 59
57 57 57 57 57 56 56 55 55 55 56 57 57 57 46 19 28 54 51 34 29 25 23 26 24 20 19 16 13 14 15 14 29 38 49 48 49 50 52 56 56 56 57 58 58
56 57 56 56 56 56 55 54 54 55 57 56 56 54 39 27 37 45 33 22 23 20 17 20 22 20 18 17 16 17 13 13 37 43 45 46 45 46 54 55 55 55 55 57 58
56 56 56 56 56 56 55 54 54 57 57 56 57 51 34 36 40 33 29 33 28 22 20 21 23 21 17 18 16 15 14 11 23 40 44 43 40 47 55 54 53 54 55 55 56
56 56 56 55 55 56 54 54 56 57 56 58 50 48 29 46 36 34 33 30 32 31 30 25 24 19 17 14 12 13 12 21 24 28 43 39 38 47 53 52 52 53 54 55 55
56 56 55 55 55 54 54 54 56 54 55 54 49 33 30 32 34 34 34 32 24 25 18 19 18 16 15 12 10 11 12 18 13 17 42 33 34 49 52 51 51 53 54 54 55
56 55 54 54 54 53 51 38 38 35 38 31 26 25 23 22 27 26 32 29 28 16 15 16 12 12 12 18 17 15 14 14 14 15 35 33 32 44 50 51 51 51 52 53 54
56 55 55 54 53 53 46 38 39 39 37 36 34 24 20 19 18 23 31 27 22 19 15 9 9 13 17 16 17 17 15 12 12 14 17 20 25 34 49 49 50 51 51 52 53
55 54 55 54 53 45 45 40 42 37 29 24 22 20 18 18 17 19 26 20 17 15 10 7 9 14 16 15 15 14 10 11 9 14 15 19 18 45 47 49 49 50 51 51 52
54 54 54 54 41 43 29 41 39 41 21 21 29 25 20 20 20 22 24 16 14 10 10 9 11 13 13 13 13 13 13 12 12 14 8 17 10 18 46 47 48 48 50 50 51
54 54 54 53 43 40 32 41 42 31 14 26 28 24 21 19 19 19 20 13 12 10 9 7 16 16 18 16 14 13 15 13 15 13 14 16 12 14 42 45 46 48 48 50 51
54 54 53 47 45 44 44 43 31 21 15 22 21 19 19 18 16 17 15 17 15 11 18 9 17 18 15 18 16 21 18 15 17 14 11 12 11 11 31 42 44 47 48 49 50
54 53 51 48 30 41 42 32 19 18 22 23 18 18 17 16 16 18 15 14 15 11 13 17 17 18 19 19 20 16 14 12 12 9 10 19 15 13 20 33 41 42 45 49 51
53 51 49 49 46 45 36 26 19 18 23 24 20 21 21 21 15 19 14 15 19 19 18 16 15 19 22 17 16 15 13 13 9 10 8 22 17 16 27 37 37 36 41 47 50
50 46 45 45 48 42 30 18 11 20 23 19 21 22 21 23 25 20 22 33 17 19 15 18 18 24 27 26 24 22 16 19 15 19 16 16 17 29 35 36 42 42 38 47 50
46 44 44 47 46 39 29 23 18 26 25 25 21 23 20 22 22 28 32 38 40 27 22 20 18 22 26 27 26 25 23 20 20 17 13 15 24 21 32 34 40 44 46 49 52
45 35 33 47 45 39 27 24 27 28 29 29 26 21 24 24 26 31 38 38 43 42 23 24 21 21 23 23 23 23 23 23 22 21 17 16 21 35 35 36 40 43 49 54 59
43 9 43 43 38 38 35 33 35 32 31 30 29 26 25 26 25 32 37 41 44 44 38 31 23 19 18 22 30 25 23 24 25 23 26 23 23 33 38 37 45 48 56 59 61
37 38 46 44 34 34 36 34 34 33 33 31 28 26 29 25 22 34 41 41 43 42 40 40 22 19 19 21 32 29 30 31 29 30 27 27 25 39 44 46 48 50 55 59 60
41 36 43 41 38 35 33 32 32 35 33 32 30 30 26 24 28 29 37 45 45 45 51 40 35 21 18 18 32 30 31 33 31 28 28 31 31 38 43 45 51 50 55 57 59
41 36 43 36 36 36 35 35 34 34 35 33 30 28 23 23 25 28 36 39 43 45 42 39 36 40 38 38 38 32 31 29 29 32 31 31 35 38 42 51 54 52 54 56 56
41 42 45 42 42 38 38 35 37 36 36 32 32 37 24 23 20 26 32 35 32 38 39 42 36 39 37 37 40 36 31 31 32 36 36 39 39 45 50 58 56 53 53 54 56
45 46 45 42 39 35 36 39 38 40 38 35 38 36 34 36 35 33 33 36 41 35 38 37 35 33 30 39 39 29 34 39 38 40 38 36 37 54 56 57 57 55 55 58 59
Lifted_Index
11 11 11 11 11 12 12 12 12 12 12 12 12 13 13 13 12 11 11 12 12 13 13 12 11 10 9 8 7 6 5 5 3 2 0 -0 -1 -2 -3 -3 -2 -1 0 1 1
11 11 11 11 11 12 12 12 12 12 12 12 12 13 13 12 11 10 11 11 12 13 13 12 11 9 8 7 7 6 6 6 4 2 0 -0 -1 -2 -3 -3 -2 -1 0 1 1
11 11 11 11 11 11 12 12 12 12 12 12 13 13 13 11 9 9 9 10 11 12 13 12 10 9 7 7 6 6 6 6 5 3 1 -0 -1 -2 -2 -2 -2 -1 0 0 1
11 11 11 11 11 11 12 12 12 12 12 12 13 13 12 10 8 7 8 9 10 12 12 11 10 8 7 7 6 6 6 7 6 4 1 -0 -1 -2 -2 -2 -2 -1 -0 0 0
11 11 11 11 11 12 12 12 11 11 11 12 12 12 11 9 7 7 7 8 10 12 11 11 10 8 7 7 6 6 6 6 5 4 1 -0 -1 -2 -2 -2 -2 -1 -1 -0 -0
10 10 11 11 11 12 12 12 11 11 11 11 12 12 10 8 7 7 8 10 11 11 11 11 10 9 8 7 6 6 5 5 4 3 1 -0 -1 -2 -2 -2 -2 -1 -1 -0 -1
10 10 11 11 11 11 12 12 11 11 11 11 11 11 10 8 8 8 9 11 11 11 11 11 11 10 9 7 6 5 4 3 3 2 1 0 -1 -2 -2 -2 -2 -1 -1 -1 -1
10 10 11 11 11 11 11 11 11 10 10 10 10 10 9 9 8 8 9 10 11 11 11 11 10 9 8 7 5 4 3 3 2 1 0 0 -0 -1 -2 -2 -2 -2 -1 -1 -1
10 10 11 11 11 11 11 11 10 10 10 10 9 9 9 8 8 8 8 9 10 10 10 10 10 9 7 5 4 2 2 2 1 1 0 0 0 -1 -2 -2 -2 -2 -2 -2 -2
10 10 10 11 11 11 11 10 10 10 9 9 9 9 9 8 8 8 8 8 9 9 9 9 8 7 6 4 3 2 2 2 2 1 1 1 0 -0 -1 -2 -2 -2 -2 -3 -3
9 10 10 11 11 11 10 10 10 9 9 9 9 9 9 8 8 8 8 8 8 8 8 7 6 6 5 5 3 2 2 2 2 2 2 1 1 0 -1 -1 -1 -2 -2 -3 -3
9 9 10 11 11 11 10 10 10 9 8 8 9 9 8 8 7 7 7 7 7 7 7 6 5 6 6 5 4 3 2 2 2 2 2 2 2 1 0 -1 -1 -1 -2 -2 -3
9 9 9 10 11 10 10 10 10 9 8 7 7 8 8 8 7 6 6 6 6 6 6 6 6 6 6 6 5 4 3 2 2 2 2 2 1 1 0 -0 -1 -1 -1 -2 -2
9 9 9 10 10 11 10 10 10 8 6 5 6 7 8 8 7 6 6 6 6 6 6 6 6 6 6 6 5 4 4 3 2 2 1 1 1 1 1 1 -0 -1 -1 -2 -2
8 9 9 10 10 11 11 10 9 7 4 4 5 6 7 7 7 6 6 6 6 6 6 6 6 6 6 6 6 5 4 4 3 2 1 1 1 1 2 1 1 -0 -1 -2 -2
8 8 9 9 10 11 11 10 8 5 3 3 5 5 6 6 7 6 6 6 6 5 5 5 6 6 6 6 6 6 5 4 3 2 2 1 1 2 2 2 1 0 -1 -2 -2
7 8 8 9 10 12 11 8 6 4 4 3 4 4 5 6 6 6 6 5 5 4 4 4 5 5 5 5 5 5 4 3 2 1 2 2 2 2 2 2 2 1 0 -1 -2
7 7 8 9 11 11 10 7 4 4 4 4 3 3 4 5 5 5 5 4 4 4 4 3 3 4 5 5 5 4 4 3 1 1 1 2 2 2 2 2 2 1 1 -0 -1
6 6 7 8 9 10 8 5 4 4 4 3 3 3 3 4 4 4 4 3 3 3 3 3 3 4 5 5 4 4 3 3 2 1 1 1 2 2 2 2 1 1 1 0 -0
6 6 7 7 8 8 7 5 4 4 4 3 2 2 3 3 3 3 2 2 2 2 3 3 3 4 4 5 4 3 3 2 2 1 1 1 1 1 1 1 1 1 1 1 0
5 6 7 6 6 7 6 5 5 5 4 3 2 2 2 2 2 1 1 1 1 1 2 2 3 3 3 4 4 4 3 2 2 1 1 1 1 1 1 0 0 1 1 0 -0
5 6 6 6 6 5 5 5 5 5 4 4 3 2 2 2 2 1 0 0 0 0 1 1 2 2 2 3 3 3 3 2 2 1 1 1 1 1 1 0 -0 -0 -0 -1 -2
5 6 6 5 5 5 5 5 5 5 5 4 3 3 2 2 2 1 0 0 0 0 0 1 1 1 2 2 2 3 3 2 1 1 1 1 1 1 0 -0 -1 -1 -2 -2 -2
5 6 5 4 4 4 4 4 4 5 4 4 3 3 3 2 2 1 0 0 0 0 1 1 1 1 1 1 1 2 2 2 2 1 1 1 0 0 -0 -1 -2 -2 -3 -3 -3
5 5 4 3 3 4 4 4 4 4 4 3 3 3 3 3 2 2 1 1 1 1 1 1 1 1 1 1 1 1 2 2 2 1 1 0 0 -0 -1 -2 -2 -3 -3 -3 -3
5 4 3 2 3 3 3 3 3 3 3 3 3 3 3 3 3 2 2 2 2 2 2 2 2 2 1 1 1 1 1 2 1 1 0 -0 -0 -1 -2 -3 -3 -3 -3 -3 -3
5 3 2 2 3 3 3 3 3 2 2 2 2 2 3 3 2 2 2 2 2 3 3 3 3 2 2 1 1 1 1 1 0 0 -0 -0 -1 -2 -3 -4 -3 -2 -2 -3 -3